Location: Unspecified
(44.0704°N, 88.6889°W)
Time: 21:00:43
(UTC+02:00)

Transit 2A - Pass Details

Date: 20 June 2019
Orbit: 594 x 964 km, 66.7° (Epoch: 19 July)

Event Time Altitude Azimuth Distance (km) Brightness Sun altitude
Rises 08:30:51 0° 204° (SSW) 3,602 - -22.0°
Reaches altitude 10° 08:33:23 10° 203° (SSW) 2,680 - -22.0°
Exits shadow 08:37:28 43° 195° (SSW) 1,332 6.7 -21.8°
Maximum altitude 08:39:43 76° 119° (ESE) 992 6.4 -21.8°
Drops below altitude 10° 08:46:01 10° 35° (NE) 2,665 9.8 -21.5°
Sets 08:48:31 0° 34° (NNE) 3,582 10.7 -21.4°
